Weather observations for the past three days for
Pontiac, Oakland County International Airport
Imperial (Metric)
Date Time (edt) Wind (mph) Vis. (mi.) Weather Sky Cond. Temperature (ºF) Relative Humidity Wind Chill (°F) Heat Index (°F) Pressure Precipitation (in)
Air Dwpt 6 hour altimeter (in) sea level (mb) 1 hr 3 hr 6 hr
Max. Min.
04 20:53 SW 7 10.00 Overcast FEW035 SCT080 BKN150 OVC250 61.2 53.6 76% 29.52 0.0
04 19:53 S 20 G 32 10.00 Thunderstorm Light Rain BKN080CB BKN150 OVC200 72 47.1 41% 29.5 0.0
04 18:53 W 12 G 22 10.00 Mostly Cloudy FEW060 BKN250 73 46.2 39% 29.49 0.0
04 17:53 SW 16 G 29 10.00 Mostly Cloudy SCT060 BKN250 73.9 43.3 33% 29.52 0.0
04 16:53 SW 17 G 32 10.00 Mostly Cloudy SCT060 BKN250 74.7 39.7 28% 29.53 0.0
04 15:53 SW 16 G 32 10.00 Mostly Cloudy FEW050 BKN250 74.7 36.1 25% 29.54 0.0
04 14:53 SW 15 G 24 10.00 Mostly Cloudy FEW050 BKN250 74.7 36.1 25% 29.56 0.0
04 13:53 SW 23 G 30 10.00 Partly Cloudy and Breezy FEW050 SCT250 73.6 36 25% 29.58 0.0
04 12:53 SW 14 G 29 10.00 A Few Clouds FEW050 FEW250 71.4 39.4 31% 29.6 0.0
04 11:53 SW 12 G 22 10.00 A Few Clouds FEW100 FEW250 65.8 41.5 41% 29.63 0.0
04 10:53 SW 10 10.00 A Few Clouds FEW250 62.1 43 50% 29.65 0.0
04 09:53 SW 9 G 20 10.00 A Few Clouds FEW250 56.7 42.6 60% 29.66 0.0
04 08:53 SW 9 10.00 A Few Clouds FEW250 53.4 41.9 65% 29.67 0.0
04 07:53 SW 12 10.00 Partly Cloudy FEW030 SCT250 52.3 40.8 65% 29.68 0.0
04 06:53 SW 7 10.00 Partly Cloudy FEW025 SCT250 47.3 38.7 72% 44 29.67 0.0
04 05:53 SW 9 10.00 A Few Clouds FEW250 46.9 37.9 71% 43 29.67 0.0
03 23:53 SW 13 G 21 10.00 Mostly Cloudy BKN070 BKN100 51.8 37.4 58% 29.77 0.0
03 22:53 SW 12 G 22 10.00 Mostly Cloudy BKN080 BKN110 51.8 37.4 58% 29.79 0.0
03 21:53 SW 13 G 21 10.00 Partly Cloudy SCT070 SCT100 53.6 37.4 54% 29.79 0.0
03 20:53 SW 10 G 21 10.00 Partly Cloudy SCT100 53.6 37.4 54% 29.79 0.0
03 19:53 W 18 G 26 10.00 Mostly Cloudy FEW070 BKN090 57.7 35.6 44% 29.78 0.0
03 18:53 W 18 G 29 10.00 Overcast BKN070 OVC090 59.5 33.8 38% 29.79 0.0
03 17:53 SW 18 G 32 10.00 Overcast BKN075 OVC090 61.2 32 33% 29.79 0.0
03 16:53 SW 14 G 29 10.00 Mostly Cloudy BKN075 BKN100 BKN200 62.2 32 32% 29.79 0.0
03 15:53 W 22 G 32 10.00 Mostly Cloudy and Breezy SCT070 BKN100 BKN200 61.3 30.2 31% 29.8 0.0
03 14:53 W 23 G 33 10.00 Partly Cloudy and Breezy FEW060 SCT100 SCT200 62.6 30.2 30% 29.82 0.0
03 13:53 W 23 G 32 10.00 Mostly Cloudy and Breezy FEW037 BKN085 60.8 30.2 31% 29.85 0.0
03 12:53 W 17 G 30 10.00 Overcast FEW065 BKN070 OVC080 57.2 30.2 36% 29.88 0.0
03 11:53 W 15 G 25 10.00 Overcast BKN080 OVC110 55.4 28.4 36% 29.9 0.0
03 10:53 W 15 G 30 10.00 Mostly Cloudy BKN080 BKN110 BKN250 57.2 28.4 33% 29.9 0.0
03 09:53 W 18 G 24 10.00 Mostly Cloudy FEW120 BKN250 53.6 28.4 38% 29.91 0.0
03 08:53 W 10 10.00 Partly Cloudy FEW120 SCT250 46.4 26.6 46% 42 29.91 0.0
03 07:53 W 10 10.00 Partly Cloudy SCT120 SCT250 42.8 24.8 49% 38 29.92 0.0
03 06:53 SW 8 10.00 A Few Clouds FEW100 FEW250 39.2 24.8 56% 34 29.91 0.0
03 05:53 SW 6 10.00 A Few Clouds FEW100 37.4 24.8 60% 33 29.93 0.0
02 23:53 SW 6 10.00 Fair CLR 41 26.6 57% 38 29.98 0.0
02 22:53 SW 5 10.00 Fair CLR 41 24.8 53% 38 29.99 0.0
02 21:53 SW 3 10.00 A Few Clouds FEW080 42.8 24.8 49% 29.99 0.0
02 20:53 Calm 10.00 A Few Clouds FEW070 44.6 23 43% 29.99 0.0
02 19:53 W 7 10.00 Partly Cloudy FEW065 SCT080 44.6 23 43% 41 29.99 0.0
02 18:53 NW 9 10.00 Mostly Cloudy SCT065 BKN075 46.4 21.7 38% 42 29.99 0.0
02 17:53 NW 13 G 22 10.00 Mostly Cloudy FEW050 SCT065 BKN075 46.4 23 40% 41 30 0.0
02 16:53 NW 12 10.00 Mostly Cloudy FEW050 BKN070 46.4 21.2 37% 42 30 0.0
02 15:53 W 16 G 23 10.00 Mostly Cloudy FEW055 BKN070 46.4 21.2 37% 40 30.02 0.0
02 14:53 W 13 10.00 Mostly Cloudy BKN060 46.4 23 40% 41 30.03 0.0
02 13:53 NW 14 G 21 10.00 Mostly Cloudy BKN055 44.6 21.2 39% 39 30.04 0.0
02 12:53 N 8 10.00 Mostly Cloudy BKN050 42.8 19.4 39% 39 30.05 0.0
02 11:53 NW 12 10.00 Mostly Cloudy BKN048 42.8 21.2 42% 37 30.06 0.0
02 10:53 N 12 G 20 10.00 Mostly Cloudy BKN043 42.8 21.2 42% 37 30.05 0.0
02 09:53 NW 7 10.00 Mostly Cloudy BKN033 39.2 24.8 56% 35 30.06 0.0
02 08:53 N 10 10.00 A Few Clouds FEW015 39.2 28.4 65% 33 30.05 0.0
02 07:53 N 8 10.00 A Few Clouds FEW012 FEW080 35.6 30.2 81% 30 30.04 0.0
02 06:53 Calm 10.00 Partly Cloudy FEW012 SCT080 35.6 30.2 81% 30.03 0.0
02 05:53 Calm 10.00 Mostly Cloudy FEW012 BKN080 35.6 28.4 75% 30.03 0.0
01 23:53 SE 7 10.00 Overcast SCT039 OVC055 39.2 28.4 65% 35 30.01 0.0
01 22:53 E 10 10.00 Overcast SCT037 OVC047 39.2 28.4 65% 33 30.01 0.0
01 21:53 NW 7 10.00 Overcast BKN047 OVC075 42.8 26.6 53% 39 29.99 0.0
Date Time (edt) Wind (mph) Vis. (mi.) Weather Sky Cond. Air Dwpt Max. Min. Relative Humidity Wind Chill (°F) Heat Index (°F) altimeter (in) sea level (mb) 1 hr 3 hr 6 hr
6 hour
Temperature (ºF) Pressure Precipitation (in)